STARLINK-3765 (52295 NORAD) Tracking and Keplerian Element Data
This shows tracking and keplerian element data for the satellite.
Feedback or suggestion? Click here.
Element | Value |
Catalog | 52295 |
Name | STARLINK-3765 |
Epoch Orbit | 130 |
Epoch Day | 167.08334491 |
Epoch Year | 2022 |
RAAN | 101.4195 |
Inclination | 53.2172 |
Eccentricity | 0.0001227 |
Argument of Perigee | 74.7382 |
Mean Anonmoly | 194.9629 |
Mean Motion | 15.54941984 |
Decay Rate | -0.00712707 |
L1 | 1 52295U 22041AL 22167.08334491 -.00712707 00000+0 -11433-1 0 9990 |
L2 | 2 52295 53.2172 101.4195 0001227 74.7382 194.9629 15.54941984 1303 |
Live tracking and technical data element details for STARLINK-3765 (NORAD 52295). STARLINK-3765 can be tracked NOW for your location showing map with azimuth and elevation plus other details from your city location.
Track the satellite on the map from your city or location and see movement details for azimuth, elevation, latitude, longitude, range, height, and movement on the map or in text.
IsCatalogInMostPopularTable: catalog: 52295, numindb: 7
Update: records affected: 1
GetName: 52295 STARLINK-3765
Hit Count: updated at: Mon, 27 Jun 2022 06:03:17 GMT